sat.trackr.live / text

‹ back to catalog

STARLINK-5742

NORAD 55583 · 2023-020Q

PAYLOAD ACTIVE UNKNOWN

§ Identity

Operator
Country
US
Launch date
2023-02-12
Launch site
AFETR
Launch vehicle
Mass (kg)
RCS (m²)

Purposes: comms

External: N2YO · Heavens-Above · Gunter

§ Orbital elements

Epoch: 2026-05-25T02:32:27.588768Z

Period
94.27 min
Inclination
42.9961°
Eccentricity
0.0001883
Mean motion
15.27586789 rev/d
Perigee alt
481.7 km
Apogee alt
484.3 km
Semi-major
6,861.2 km
B*
8.9593e-6
RAAN
293.3000°
Arg perigee
290.0659°
Mean anomaly
69.9990°
Rev number
18,060

§ Raw data

STARLINK-57421 55583U 23020Q   26145.10587487 -.00000016  00000+0  89593-5 0  99972 55583  42.9961 293.3000 0001883 290.0659  69.9990 15.27586789180602

JSON: /api/v1/satellites/55583 · /tle

For live sub-satellite position, see the globe view (requires WebGL).

§ Visibility from observer

Set your observer location to see the next 7 days of passes ≥ 10°. The values pass through the URL so the page stays shareable.

No JS? Fill the form by hand. The geolocation button needs JavaScript.